N8YZF Weather Reports


time (UTC)temp
F
wind
direction
speed
knots
gust
knots
rain 1hr
in
rain 24hr
in
rain mn
in
humidity
%
barometer
mb
20260509090507 49 175 2.6 7.0 0.00 0.00 0.00 67 998.5
20260509090306 49 198 2.6 5.2 0.00 0.00 0.00 66 998.5
20260509085457 50 203 2.6 5.2 0.00 0.00 0.00 65 998.7
20260509085005 50 208 3.5 7.8 0.00 0.00 0.00 64 998.8
20260509084453 50 227 3.5 7.8 0.00 0.00 0.00 63 998.9
20260509083952 50 182 2.6 7.0 0.00 0.00 0.00 62 998.9
20260509083452 50 213 2.6 6.1 0.00 0.00 0.00 60 998.9
20260509082955 50 186 2.6 6.1 0.00 0.00 0.00 59 999.0
20260509082752 50 227 2.6 6.1 0.00 0.00 0.00 58 999.0
20260509081949 50 200 3.5 7.0 0.00 0.00 0.00 57 999.0
20260509081919 50 238 2.6 7.0 0.00 0.00 0.00 54 999.4
20260509081913 50 202 3.5 7.0 0.00 0.00 0.00 56 999.4
20260509080447 50 189 2.6 6.1 0.00 0.00 0.00 52 999.4
20260509075940 49 163 2.6 6.1 0.00 0.00 0.00 51 999.6
20260509075438 49 207 2.6 6.1 0.00 0.00 0.00 50 999.6
20260509074918 49 201 1.7 6.1 0.00 0.00 0.00 49 999.5
20260509074418 49 150 1.7 4.3 0.00 0.00 0.00 49 999.8
20260509073918 48 188 1.7 4.3 0.00 0.00 0.00 49 999.8
20260509073722 48 202 0.9 5.2 0.00 0.00 0.00 50 999.7
20260509072918 47 191 0.9 5.2 0.00 0.00 0.00 51 1000.0
20260509072416 47 188 0.9 5.2 0.00 0.00 0.00 52 1000.0
20260509072224 46 178 0.9 4.3 0.00 0.00 0.00 52 999.8
20260509071417 45 164 0.9 3.5 0.00 0.00 0.00 55 1000.0
20260509070915 44 183 0.9 3.5 0.00 0.00 0.00 58 1000.0
20260509070411 43 139 0.9 3.5 0.00 0.00 0.00 62 999.8
20260509065855 42 145 0.0 1.7 0.00 0.00 0.00 68 1000.1
20260509065348 42 145 0.0 0.0 0.00 0.00 0.00 73 1000.1
20260509064850 42 145 0.0 1.7 0.00 0.00 0.00 74 1000.1
20260509064257 42 145 0.0 1.7 0.00 0.00 0.00 73 1000.3
20260509063750 41 143 0.0 0.0 0.00 0.00 0.00 74 1000.2
20260509063525 40 165 0.0 0.9 0.00 0.00 0.00 77 1000.2
20260509062951 40 165 0.0 0.9 0.00 0.00 0.00 79 1000.5
20260509062202 40 165 0.0 0.0 0.00 0.00 0.00 79 1000.5
20260509061657 40 165 0.0 0.0 0.00 0.00 0.00 77 1000.5
20260509061159 40 165 0.0 0.0 0.00 0.00 0.00 77 1000.6
20260509060653 40 165 0.0 0.0 0.00 0.00 0.00 76 1000.6
20260509060145 41 165 0.0 0.0 0.00 0.00 0.00 75 1000.6
20260509055640 41 165 0.0 0.0 0.00 0.00 0.00 75 1000.6
20260509055330 41 165 0.0 0.0 0.00 0.00 0.00 75 1000.6
20260509055042 41 165 0.0 0.0 0.00 0.00 0.00 74 1000.6
20260509054001 40 165 0.0 0.0 0.00 0.00 0.00 74 1000.8
20260509053452 40 165 0.0 0.0 0.00 0.00 0.00 75 1000.8
20260509052948 40 165 0.0 0.0 0.00 0.00 0.00 74 1001.0
20260509052401 40 165 0.0 0.0 0.00 0.00 0.00 74 1001.0
20260509051847 40 165 0.0 0.0 0.00 0.00 0.00 73 1001.0
20260509051347 41 165 0.0 0.0 0.00 0.00 0.00 71 1001.0
20260509050804 41 165 0.0 0.0 0.00 0.00 0.00 71 1001.0
20260509050251 41 165 0.0 0.0 0.00 0.00 0.00 72 1001.0
20260509050044 41 165 0.0 0.0 0.00 0.00 0.00 72 1001.2
20260509045249 41 165 0.0 0.0 0.00 0.00 0.00 71 1001.2
20260509044655 41 165 0.0 0.0 0.00 0.00 0.00 69 1001.2
20260509044147 41 165 0.0 0.0 0.00 0.00 0.00 70 1001.3
20260509043643 42 165 0.0 0.0 0.00 0.00 0.00 70 1001.3
20260509043143 42 165 0.0 0.0 0.00 0.00 0.00 70 1001.3
20260509042642 42 165 0.0 0.0 0.00 0.00 0.00 69 1001.5
20260509042101 42 165 0.0 0.0 0.00 0.00 0.00 69 1001.6
20260509041601 42 165 0.0 0.0 0.00 0.00 0.00 68 1001.6
20260509041100 42 165 0.0 0.0 0.00 0.00 0.00 68 1001.7
20260509040550 42 165 0.0 0.0 0.00 0.00 0.00 68 1001.7
20260509040007 42 165 0.0 0.0 0.00 0.00 0.00 67 1001.7
20260509035500 42 165 0.0 0.0 0.00 0.00 0.00 66 1001.7
20260509034954 42 165 0.0 0.0 0.00 0.00 0.00 65 1001.7
20260509034443 42 165 0.0 0.0 0.00 0.00 0.00 65 1001.7
20260509033940 42 165 0.0 0.0 0.00 0.00 0.00 65 1001.8
20260509033408 42 165 0.0 0.0 0.00 0.00 0.00 65 1001.8
20260509032906 42 165 0.0 0.0 0.00 0.00 0.00 65 1002.1
20260509032443 42 165 0.0 0.0 0.00 0.00 0.00 65 1002.1
20260509032431 42 165 0.0 0.0 0.00 0.00 0.00 64 1002.1
20260509031359 43 165 0.0 0.0 0.00 0.00 0.00 64 1002.2
20260509030802 43 165 0.0 0.0 0.00 0.00 0.00 63 1002.2
20260509030257 44 165 0.0 0.0 0.00 0.00 0.00 63 1002.3
20260509025751 44 165 0.0 0.0 0.00 0.00 0.00 63 1002.4
20260509025246 44 165 0.0 0.0 0.00 0.00 0.00 62 1002.4
20260509024706 44 165 0.0 0.0 0.00 0.00 0.00 61 1002.4
20260509024204 45 165 0.0 0.0 0.00 0.00 0.00 60 1002.5
20260509023705 45 165 0.0 0.0 0.00 0.00 0.00 59 1002.5
20260509023205 46 165 0.0 0.0 0.00 0.00 0.00 58 1002.5
20260509022704 46 165 0.0 0.9 0.00 0.00 0.00 56 1002.7
20260509022159 47 165 0.0 1.7 0.00 0.00 0.00 55 1002.7
20260509021646 47 165 0.9 3.5 0.00 0.00 0.00 54 1002.7
20260509021147 48 165 0.9 3.5 0.00 0.00 0.00 53 1002.6
20260509020552 48 190 0.9 1.7 0.00 0.00 0.00 53 1002.7
20260509015549 50 190 0.0 0.0 0.00 0.00 0.00 51 1002.8
20260509015048 51 190 0.0 0.0 0.00 0.00 0.00 48 1002.9
20260509014552 52 190 0.0 0.0 0.00 0.00 0.00 45 1002.9
20260509014052 52 190 0.0 0.0 0.00 0.00 0.00 44 1003.0
20260509013515 53 190 0.0 0.0 0.00 0.00 0.00 42 1003.0
20260509013252 54 190 0.0 0.0 0.00 0.00 0.00 41 1003.1
20260509012446 55 190 0.0 0.0 0.00 0.00 0.00 40 1003.1
20260509011943 55 190 0.0 0.0 0.00 0.00 0.00 38 1003.2
20260509011727 55 190 0.0 0.0 0.00 0.00 0.00 38 1003.2
20260509011222 56 190 0.0 1.7 0.00 0.00 0.00 38 1003.2
20260509010439 56 190 0.9 3.5 0.00 0.00 0.00 38 1003.2
20260509005912 56 190 1.7 3.5 0.00 0.00 0.00 36 1003.2
20260509005404 56 191 0.9 3.5 0.00 0.00 0.00 36 1003.2
20260509004903 57 174 0.9 2.6 0.00 0.00 0.00 36 1003.4
20260509004403 57 207 1.7 3.5 0.00 0.00 0.00 35 1003.4
20260509003857 58 207 1.7 7.0 0.00 0.00 0.00 34 1003.4
20260509003356 58 172 2.6 7.0 0.00 0.00 0.00 34 1003.4
20260509003154 58 248 1.7 6.1 0.00 0.00 0.00 33 1003.4
20260509002651 58 213 1.7 6.1 0.00 0.00 0.00 33 1003.5
20260509001844 59 223 2.6 6.1 0.00 0.00 0.00 33 1003.5
20260509001342 59 232 2.6 5.2 0.00 0.00 0.00 32 1003.5
20260509000843 60 215 1.7 4.3 0.00 0.00 0.00 31 1003.6
20260509000607 60 215 1.7 4.3 0.00 0.00 0.00 31 1003.6
20260508235807 60 278 2.6 6.1 0.00 0.00 0.00 30 1003.6
20260508235310 61 266 2.6 6.1 0.00 0.00 0.00 31 1003.6
20260508234808 61 248 2.6 7.0 0.00 0.00 0.00 30 1003.6
20260508234608 61 258 3.5 7.0 0.00 0.00 0.00 30 1003.7
20260508233802 61 220 2.6 7.8 0.00 0.00 0.00 29 1003.7
20260508233301 62 221 2.6 7.8 0.00 0.00 0.00 30 1003.7
20260508232803 62 286 2.6 6.1 0.00 0.00 0.00 30 1003.8
20260508232307 62 264 2.6 7.0 0.00 0.00 0.00 30 1003.8
20260508231802 62 287 2.6 7.0 0.00 0.00 0.00 29 1003.8
20260508231604 62 247 3.5 10.4 0.00 0.00 0.00 29 1003.8
20260508230802 63 256 2.6 10.4 0.00 0.00 0.00 28 1003.9
20260508230303 63 240 1.7 5.2 0.00 0.00 0.00 29 1003.9
20260508230056 62 187 2.6 7.0 0.00 0.00 0.00 30 1003.8
20260508225306 62 291 3.5 7.0 0.00 0.00 0.00 28 1003.8
20260508224800 63 238 2.6 7.0 0.00 0.00 0.00 27 1003.9
20260508224603 63 281 1.7 4.3 0.00 0.00 0.00 29 1003.9
20260508223747 63 221 2.6 6.1 0.00 0.00 0.00 28 1003.9
20260508223247 63 277 2.6 7.0 0.00 0.00 0.00 28 1003.9
20260508222748 64 217 2.6 7.0 0.00 0.00 0.00 27 1004.0
20260508222247 64 207 2.6 9.6 0.00 0.00 0.00 28 1004.0
20260508222040 64 220 2.6 9.6 0.00 0.00 0.00 27 1004.0
20260508221243 64 306 0.9 4.3 0.00 0.00 0.00 29 1004.1
20260508220743 63 348 0.9 3.5 0.00 0.00 0.00 30 1004.1
20260508220540 63 10 1.7 13.0 0.00 0.00 0.00 31 1004.1
20260508215704 63 247 2.6 13.0 0.00 0.00 0.00 29 1004.2
20260508215205 63 281 2.6 7.0 0.00 0.00 0.00 27 1004.2
20260508214702 63 0 2.6 7.0 0.00 0.00 0.00 27 1004.2
20260508214613 62 296 3.5 8.7 0.00 0.00 0.00 29 1004.1
20260508214608 63 214 3.5 8.7 0.00 0.00 0.00 27 1004.2
20260508213201 62 290 4.3 8.7 0.00 0.00 0.00 27 1004.1
20260508213008 62 298 3.5 7.8 0.00 0.00 0.00 28 1004.3
20260508212201 62 235 3.5 7.8 0.00 0.00 0.00 28 1004.3
20260508211701 62 293 2.6 7.8 0.00 0.00 0.00 27 1004.3
20260508211201 62 211 2.6 7.0 0.00 0.00 0.00 28 1004.4
20260508210657 62 285 3.5 9.6 0.00 0.00 0.00 29 1004.4
20260508210155 62 275 3.5 9.6 0.00 0.00 0.00 29 1004.4
20260508205656 62 222 2.6 7.8 0.00 0.00 0.00 28 1004.4
20260508205154 62 273 1.7 6.1 0.00 0.00 0.00 29 1004.4
20260508204657 62 265 1.7 6.1 0.00 0.00 0.00 29 1004.4
20260508204154 62 266 2.6 7.0 0.00 0.00 0.00 29 1004.5
20260508203655 61 298 2.6 7.0 0.00 0.00 0.00 29 1004.4
20260508203155 61 229 1.7 9.6 0.00 0.00 0.00 30 1004.4
20260508202653 62 269 1.7 9.6 0.00 0.00 0.00 29 1004.8
20260508202153 62 193 3.5 9.6 0.00 0.00 0.00 28 1004.9
20260508201653 62 304 3.5 9.6 0.00 0.00 0.00 28 1004.9
20260508201153 62 283 4.3 9.6 0.00 0.00 0.00 27 1004.9
20260508200954 62 263 4.3 9.6 0.00 0.00 0.00 28 1004.9
20260508200205 62 0 3.5 10.4 0.00 0.00 0.00 30 1004.9
20260508195652 63 288 3.5 10.4 0.00 0.00 0.00 27 1005.0
20260508195152 63 321 2.6 11.3 0.00 0.00 0.00 30 1005.0
20260508194655 63 309 2.6 11.3 0.00 0.00 0.00 27 1005.0
20260508194151 62 293 2.6 7.8 0.00 0.00 0.00 34 1005.4
20260508193646 62 281 2.6 7.0 0.00 0.00 0.00 27 1005.3
20260508193144 63 281 1.7 7.0 0.00 0.00 0.00 29 1005.4
20260508192644 63 273 1.7 6.1 0.00 0.00 0.00 29 1005.4
20260508192141 63 262 2.6 5.2 0.00 0.00 0.00 27 1005.4
20260508191108 62 355 3.5 10.4 0.00 0.00 0.00 32 1005.5
20260508190602 62 244 3.5 9.6 0.00 0.00 0.00 29 1005.5
20260508190107 62 308 3.5 8.7 0.00 0.00 0.00 31 1005.4
20260508185553 61 290 3.5 8.7 0.00 0.00 0.00 32 1005.6
20260508185055 61 308 3.5 7.8 0.00 0.00 0.00 30 1005.6
20260508184555 62 256 3.5 7.8 0.00 0.00 0.00 30 1005.6
20260508184058 62 243 1.7 7.8 0.00 0.00 0.00 30 1005.9
20260508183555 61 320 1.7 6.1 0.00 0.00 0.00 31 1005.9
20260508183052 60 347 2.6 10.4 0.00 0.00 0.00 36 1005.8
20260508182547 60 290 3.5 10.4 0.00 0.00 0.00 31 1005.9
20260508182035 59 111 3.5 9.6 0.00 0.00 0.00 31 1005.9
20260508181512 60 180 2.6 8.7 0.00 0.00 0.00 32 1005.9
20260508181010 60 179 2.6 7.8 0.00 0.00 0.00 30 1006.2
20260508180509 60 273 2.6 5.2 0.00 0.00 0.00 32 1006.2
20260508180008 60 258 3.5 8.7 0.00 0.00 0.00 34 1006.2
20260508175509 60 257 4.3 9.6 0.00 0.00 0.00 31 1006.5
20260508175008 59 292 4.3 11.3 0.00 0.00 0.00 33 1006.4
20260508174509 59 270 3.5 11.3 0.00 0.00 0.00 32 1006.4
20260508174009 59 265 3.5 7.0 0.00 0.00 0.00 32 1006.6
20260508173509 59 279 3.5 7.8 0.00 0.00 0.00 32 1006.6
20260508173318 59 234 3.5 9.6 0.00 0.00 0.00 31 1006.6
20260508172516 60 183 2.6 9.6 0.00 0.00 0.00 32 1006.9
20260508172005 60 259 1.7 9.6 0.00 0.00 0.00 35 1007.0
20260508171505 60 236 4.3 11.3 0.00 0.00 0.00 30 1006.9
20260508171004 60 262 4.3 12.2 0.00 0.00 0.00 31 1007.1
20260508170501 60 262 4.3 12.2 0.00 0.00 0.00 33 1007.1
20260508170309 60 265 4.3 12.2 0.00 0.00 0.00 33 1007.3
20260508165500 60 214 3.5 10.4 0.00 0.00 0.00 31 1007.3
20260508164958 60 279 3.5 11.3 0.00 0.00 0.00 36 1007.3
20260508164501 60 254 3.5 11.3 0.00 0.00 0.00 33 1007.6
20260508163948 59 247 3.5 9.6 0.00 0.00 0.00 33 1007.6
20260508163450 59 5 2.6 7.8 0.00 0.00 0.00 33 1007.6
20260508162949 60 273 1.7 7.0 0.00 0.00 0.00 33 1007.6
20260508162757 59 73 1.7 7.0 0.00 0.00 0.00 32 1007.6
20260508161949 58 40 2.6 9.6 0.00 0.00 0.00 32 1007.5
20260508161452 58 290 2.6 9.6 0.00 0.00 0.00 34 1007.5
20260508160950 58 200 2.6 9.6 0.00 0.00 0.00 34 1007.5
20260508160742 58 235 2.6 9.6 0.00 0.00 0.00 34 1007.5
20260508160250 58 199 4.3 8.7 0.00 0.00 0.00 33 1007.6
20260508155444 58 267 4.3 8.7 0.00 0.00 0.00 34 1007.6
20260508154943 57 217 3.5 8.7 0.00 0.00 0.00 32 1007.6
20260508154445 57 248 3.5 8.7 0.00 0.00 0.00 33 1007.5
20260508153945 57 178 3.5 7.8 0.00 0.00 0.00 32 1007.5
20260508153756 57 263 2.6 7.8 0.00 0.00 0.00 34 1007.6
20260508152946 57 265 2.6 7.0 0.00 0.00 0.00 34 1007.6
20260508152838 57 292 2.6 7.0 0.00 0.00 0.00 39 1007.6
20260508152832 57 292 2.6 7.0 0.00 0.00 0.00 36 1007.6
20260508151427 56 157 3.5 7.0 0.00 0.00 0.00 38 1007.8
20260508150915 56 281 2.6 7.8 0.00 0.00 0.00 39 1007.7
20260508150414 55 271 4.3 10.4 0.00 0.00 0.00 39 1007.7
20260508145913 55 231 5.2 10.4 0.00 0.00 0.00 39 1007.8
20260508145409 55 211 5.2 9.6 0.00 0.00 0.00 38 1007.8
20260508144904 54 161 4.3 9.6 0.00 0.00 0.00 41 1007.7
20260508144404 55 234 3.5 7.0 0.00 0.00 0.00 41 1007.8
20260508144217 54 201 3.5 7.0 0.00 0.00 0.00 41 1007.8
20260508143404 54 293 3.5 8.7 0.00 0.00 0.00 41 1007.8
20260508142857 54 231 3.5 8.7 0.00 0.00 0.00 40 1007.8
20260508142355 53 188 3.5 10.4 0.00 0.00 0.00 42 1007.8
20260508142159 53 286 4.3 10.4 0.00 0.00 0.00 45 1007.7
20260508141355 52 205 4.3 8.7 0.00 0.00 0.00 44 1007.8
20260508140905 52 231 3.5 8.7 0.00 0.00 0.00 47 1007.8
20260508140352 52 279 3.5 8.7 0.00 0.00 0.00 53 1007.8
20260508135854 51 229 2.6 6.1 0.00 0.00 0.00 53 1007.9
20260508135351 51 277 3.5 7.0 0.00 0.00 0.00 54 1007.9
20260508134850 51 214 2.6 7.0 0.00 0.00 0.00 55 1007.9
20260508134345 50 225 2.6 6.1 0.00 0.00 0.00 58 1008.0
20260508133932 50 254 1.7 6.1 0.00 0.00 0.00 59 1008.0
20260508132843 48 221 1.7 4.3 0.00 0.00 0.00 65 1008.0
20260508132312 47 225 1.7 6.1 0.00 0.00 0.00 66 1007.9
20260508131808 46 169 2.6 6.1 0.00 0.00 0.00 68 1007.9
20260508131313 46 230 1.7 5.2 0.00 0.00 0.00 71 1007.8
20260508130807 45 157 1.7 4.3 0.00 0.00 0.00 72 1007.8
20260508130306 44 173 0.9 2.6 0.00 0.00 0.00 75 1007.7
20260508125809 44 211 0.9 3.5 0.00 0.00 0.00 78 1007.8
20260508125310 43 194 0.9 3.5 0.00 0.00 0.00 80 1007.7
20260508124802 42 152 0.9 3.5 0.00 0.00 0.00 82 1007.6
20260508124255 41 157 1.7 3.5 0.00 0.00 0.00 84 1007.6
20260508123753 40 165 0.9 3.5 0.00 0.00 0.00 85 1007.5
20260508123246 39 172 0.9 3.5 0.00 0.00 0.00 87 1007.4
20260508122746 38 177 0.9 3.5 0.00 0.00 0.00 89 1007.3
20260508122242 38 173 0.0 3.5 0.00 0.00 0.00 90 1007.3
20260508121735 37 145 0.0 0.0 0.00 0.00 0.00 92 1007.2
20260508121157 36 145 0.0 0.0 0.00 0.00 0.00 93 1007.0
20260508120654 35 145 0.0 0.0 0.00 0.00 0.00 94 1007.0
20260508120142 34 145 0.0 0.0 0.00 0.00 0.00 95 1006.7
20260508115642 33 145 0.0 0.0 0.00 0.00 0.00 95 1006.7
20260508115054 31 145 0.0 0.0 0.00 0.00 0.00 95 1006.6
20260508114500 30 211 0.0 0.0 0.00 0.00 0.00 95 1006.5
20260508113959 29 211 0.0 0.0 0.00 0.00 0.00 95 1006.4
20260508113756 28 211 0.0 0.0 0.00 0.00 0.00 94 1006.3
20260508113240 27 211 0.0 0.0 0.00 0.00 0.00 94 1006.1
20260508112432 27 211 0.0 0.0 0.00 0.00 0.00 93 1006.0
20260508111913 27 211 0.0 0.0 0.00 0.00 0.00 93 1006.0
20260508111358 27 211 0.0 0.0 0.00 0.00 0.00 93 1005.9
20260508110857 26 211 0.0 0.0 0.00 0.00 0.00 93 1005.9
20260508110357 26 211 0.0 0.0 0.00 0.00 0.00 93 1005.9
20260508105848 26 211 0.0 0.0 0.00 0.00 0.00 93 1005.8
20260508105346 26 211 0.0 0.0 0.00 0.00 0.00 93 1005.8
20260508104802 26 211 0.0 0.0 0.00 0.00 0.00 93 1005.8
20260508104300 26 211 0.0 0.0 0.00 0.00 0.00 93 1005.8
20260508104039 26 211 0.0 0.0 0.00 0.00 0.00 93 1005.8
20260508103242 26 211 0.0 0.0 0.00 0.00 0.00 93 1005.8
20260508102700 26 211 0.0 0.0 0.00 0.00 0.00 93 1005.9
20260508102200 26 211 0.0 0.0 0.00 0.00 0.00 93 1005.9
20260508101648 26 211 0.0 0.0 0.00 0.00 0.00 93 1005.9
20260508101101 26 211 0.0 0.0 0.00 0.00 0.00 93 1006.1
20260508100551 26 211 0.0 0.0 0.00 0.00 0.00 93 1006.1
20260508100249 26 211 0.0 0.0 0.00 0.00 0.00 93 1006.1
20260508095451 26 211 0.0 0.0 0.00 0.00 0.00 93 1006.0
20260508094946 26 211 0.0 0.0 0.00 0.00 0.00 93 1006.0
20260508094444 26 211 0.0 0.0 0.00 0.00 0.00 93 1006.2
20260508093907 26 211 0.0 0.0 0.00 0.00 0.00 93 1006.2
20260508093246 26 211 0.0 0.0 0.00 0.00 0.00 93 1006.2
20260508092745 26 211 0.0 0.0 0.00 0.00 0.00 93 1006.3
20260508092243 26 211 0.0 0.0 0.00 0.00 0.00 93 1006.3
20260508091705 26 211 0.0 0.0 0.00 0.00 0.00 93 1006.3
20260508091217 27 211 0.0 0.0 0.00 0.00 0.00 93 1006.3
20260508091207 27 211 0.0 0.0 0.00 0.00 0.00 93 1006.3